FENGYUN 3D (43010 NORAD) Tracking and Keplerian Element Data

This shows tracking and keplerian element data for the satellite.

Feedback or suggestion? Click here.




ElementValue
Catalog43010
NameFENGYUN 3D
Epoch Orbit6940
Epoch Day77.82677358
Epoch Year2019
RAAN18.5899
Inclination98.7054
Eccentricity0.0001211
Argument of Perigee6.815
Mean Anonmoly353.3046
Mean Motion14.19716224
Decay Rate-1E-07
L11 43010U 17072A 19077.82677358 -.00000010 00000-0 15885-4 0 9998
L22 43010 98.7054 18.5899 0001211 6.8150 353.3046 14.19716224 69408

Live tracking and technical data element details for FENGYUN 3D (NORAD 43010). FENGYUN 3D can be tracked NOW for your location showing map with azimuth and elevation plus other details from your city location.

Track the satellite on the map from your city or location and see movement details for azimuth, elevation, latitude, longitude, range, height, and movement on the map or in text.







IsCatalogInMostPopularTable: catalog: 43010, numindb: 220
Update: records affected: 1



GetName: 43010 FENGYUN 3D

Hit Count: updated at: Wed, 20 Mar 2019 05:31:32 GMT